| time (UTC) | temp C | wind direction | speed KPH | gust KPH | rain 1hr cm | rain 24hr cm | rain mn cm | humidity % | barometer mb |
| 20260507113035 | 23 | 143 | 3.2 | 11.3 | 0.00 | 0.00 | 0.00 | 91 | 1015.5 |
| 20260507111516 | 23 | 150 | 1.6 | 9.7 | 0.00 | 0.00 | 0.00 | 94 | 1015.3 |
| 20260507110012 | 22 | 163 | 0.0 | 8.0 | 0.00 | 0.00 | 0.00 | 95 | 1015.2 |
| 20260507104509 | 21 | 156 | 3.2 | 9.7 | 0.00 | 0.00 | 0.00 | 96 | 1014.9 |
| 20260507103008 | 21 | 116 | 1.6 | 9.7 | 0.00 | 0.00 | 0.00 | 96 | 1014.7 |
| 20260507101507 | 21 | 125 | 0.0 | 0.0 | 0.00 | 0.00 | 0.00 | 95 | 1014.7 |
| 20260507100003 | 21 | 125 | 0.0 | 0.0 | 0.00 | 0.00 | 0.00 | 95 | 1014.4 |
| 20260507094501 | 21 | 125 | 0.0 | 3.2 | 0.00 | 0.00 | 0.00 | 95 | 1014.2 |
| 20260507093100 | 21 | 125 | 0.0 | 3.2 | 0.00 | 0.00 | 0.00 | 94 | 1014.3 |
| 20260507091559 | 21 | 165 | 0.0 | 3.2 | 0.00 | 0.00 | 0.00 | 94 | 1014.2 |
| 20260507090057 | 22 | 165 | 1.6 | 3.2 | 0.00 | 0.00 | 0.00 | 93 | 1014.3 |
| 20260507084601 | 22 | 165 | 1.6 | 6.4 | 0.00 | 0.00 | 0.00 | 92 | 1014.2 |
| 20260507083051 | 22 | 165 | 3.2 | 11.3 | 0.00 | 0.00 | 0.00 | 92 | 1014.1 |
| 20260507081549 | 23 | 193 | 3.2 | 12.9 | 0.00 | 0.00 | 0.00 | 92 | 1014.1 |
| 20260507080046 | 23 | 145 | 6.4 | 16.1 | 0.00 | 0.00 | 0.00 | 92 | 1014.2 |
| 20260507074548 | 23 | 178 | 4.8 | 19.3 | 0.00 | 0.00 | 0.00 | 92 | 1014.2 |
| 20260507073054 | 23 | 154 | 4.8 | 14.5 | 0.00 | 0.00 | 0.00 | 92 | 1014.3 |
| 20260507071541 | 23 | 150 | 4.8 | 12.9 | 0.00 | 0.00 | 0.00 | 91 | 1014.3 |
| 20260507070042 | 23 | 135 | 4.8 | 12.9 | 0.00 | 0.00 | 0.00 | 91 | 1014.5 |
| 20260507064544 | 23 | 174 | 4.8 | 14.5 | 0.00 | 0.00 | 0.00 | 90 | 1014.6 |
| 20260507063045 | 23 | 130 | 8.0 | 17.7 | 0.00 | 0.00 | 0.00 | 90 | 1014.6 |
| 20260507061538 | 24 | 101 | 8.0 | 17.7 | 0.00 | 0.00 | 0.00 | 89 | 1014.7 |
| 20260507060032 | 24 | 99 | 8.0 | 17.7 | 0.00 | 0.00 | 0.00 | 88 | 1014.9 |
| 20260507054529 | 24 | 146 | 8.0 | 16.1 | 0.00 | 0.00 | 0.00 | 87 | 1015.1 |
| 20260507053033 | 24 | 138 | 4.8 | 17.7 | 0.00 | 0.00 | 0.00 | 87 | 1015.1 |
| 20260507051527 | 25 | 110 | 6.4 | 14.5 | 0.00 | 0.00 | 0.00 | 86 | 1015.3 |
| 20260507050024 | 25 | 124 | 6.4 | 16.1 | 0.00 | 0.00 | 0.00 | 85 | 1015.5 |
| 20260507044523 | 25 | 155 | 8.0 | 14.5 | 0.00 | 0.00 | 0.00 | 84 | 1015.6 |
| 20260507043018 | 25 | 163 | 4.8 | 14.5 | 0.00 | 0.00 | 0.00 | 83 | 1015.7 |
| 20260507041514 | 24 | 144 | 6.4 | 14.5 | 0.00 | 0.00 | 0.00 | 85 | 1015.8 |
| 20260507040010 | 23 | 144 | 3.2 | 4.8 | 0.00 | 0.00 | 0.00 | 87 | 1016.0 |
| 20260507034511 | 23 | 144 | 1.6 | 4.8 | 0.00 | 0.00 | 0.00 | 86 | 1016.1 |
| 20260507033009 | 23 | 144 | 0.0 | 0.0 | 0.00 | 0.00 | 0.00 | 85 | 1016.1 |
| 20260507031508 | 23 | 144 | 0.0 | 0.0 | 0.00 | 0.00 | 0.00 | 85 | 1016.1 |
| 20260507030008 | 23 | 144 | 0.0 | 0.0 | 0.00 | 0.00 | 0.00 | 86 | 1016.2 |
| 20260507024508 | 23 | 144 | 0.0 | 0.0 | 0.00 | 0.00 | 0.00 | 85 | 1016.2 |
| 20260507023006 | 23 | 144 | 0.0 | 0.0 | 0.00 | 0.00 | 0.00 | 85 | 1016.2 |
| 20260507021505 | 25 | 144 | 1.6 | 3.2 | 0.00 | 0.00 | 0.00 | 82 | 1016.1 |
| 20260507020003 | 25 | 144 | 0.0 | 0.0 | 0.00 | 0.00 | 0.00 | 80 | 1016.0 |
| 20260507014503 | 26 | 144 | 0.0 | 3.2 | 0.00 | 0.00 | 0.00 | 75 | 1015.7 |
| 20260507013006 | 26 | 144 | 3.2 | 6.4 | 0.00 | 0.00 | 0.00 | 72 | 1015.6 |
| 20260507011500 | 27 | 138 | 1.6 | 6.4 | 0.00 | 0.00 | 0.00 | 72 | 1015.5 |
| 20260507010059 | 27 | 156 | 0.0 | 3.2 | 0.00 | 0.00 | 0.00 | 72 | 1015.4 |
| 20260507004559 | 27 | 156 | 1.6 | 4.8 | 0.00 | 0.00 | 0.00 | 71 | 1015.3 |
| 20260507003059 | 27 | 156 | 0.0 | 4.8 | 0.00 | 0.00 | 0.00 | 68 | 1015.1 |
| 20260507001611 | 28 | 92 | 4.8 | 11.3 | 0.00 | 0.00 | 0.00 | 67 | 1015.0 |
| 20260507000057 | 28 | 175 | 6.4 | 11.3 | 0.00 | 0.00 | 0.00 | 68 | 1014.8 |
| 20260506234602 | 28 | 178 | 1.6 | 8.0 | 0.00 | 0.00 | 0.00 | 69 | 1014.6 |
| 20260506233056 | 28 | 147 | 3.2 | 11.3 | 0.00 | 0.00 | 0.00 | 68 | 1014.2 |
| 20260506231554 | 29 | 140 | 3.2 | 14.5 | 0.00 | 0.00 | 0.00 | 66 | 1014.0 |
| 20260506230051 | 30 | 154 | 3.2 | 11.3 | 0.00 | 0.00 | 0.00 | 65 | 1013.8 |
| 20260506224605 | 30 | 120 | 6.4 | 16.1 | 0.00 | 0.00 | 0.00 | 63 | 1013.6 |
| 20260506223054 | 31 | 70 | 9.7 | 17.7 | 0.00 | 0.00 | 0.00 | 62 | 1013.4 |
| 20260506221547 | 31 | 140 | 6.4 | 20.9 | 0.00 | 0.00 | 0.00 | 62 | 1013.0 |
| 20260506214546 | 31 | 116 | 8.0 | 17.7 | 0.00 | 0.00 | 0.00 | 61 | 1012.7 |
| 20260506213045 | 32 | 150 | 6.4 | 20.9 | 0.00 | 0.00 | 0.00 | 61 | 1012.5 |
| 20260506211552 | 32 | 113 | 8.0 | 19.3 | 0.00 | 0.00 | 0.00 | 58 | 1012.4 |
| 20260506210044 | 33 | 95 | 8.0 | 19.3 | 0.00 | 0.00 | 0.00 | 57 | 1012.2 |
| 20260506204543 | 33 | 134 | 9.7 | 19.3 | 0.00 | 0.00 | 0.00 | 55 | 1012.2 |
| 20260506203041 | 33 | 126 | 6.4 | 22.5 | 0.00 | 0.00 | 0.00 | 55 | 1012.2 |
| 20260506201541 | 34 | 109 | 11.3 | 17.7 | 0.00 | 0.00 | 0.00 | 54 | 1012.3 |
| 20260506200040 | 35 | 67 | 8.0 | 17.7 | 0.00 | 0.00 | 0.00 | 53 | 1012.3 |
| 20260506194543 | 34 | 93 | 8.0 | 19.3 | 0.00 | 0.00 | 0.00 | 51 | 1012.4 |
| 20260506193035 | 34 | 138 | 9.7 | 17.7 | 0.00 | 0.00 | 0.00 | 54 | 1012.6 |
| 20260506191533 | 34 | 90 | 9.7 | 17.7 | 0.00 | 0.00 | 0.00 | 54 | 1012.6 |
| 20260506190031 | 34 | 112 | 4.8 | 20.9 | 0.00 | 0.00 | 0.00 | 56 | 1012.7 |
| 20260506184531 | 33 | 97 | 11.3 | 24.1 | 0.00 | 0.00 | 0.00 | 57 | 1012.9 |
| 20260506183030 | 33 | 144 | 14.5 | 25.7 | 0.00 | 0.00 | 0.00 | 56 | 1013.0 |
| 20260506181525 | 33 | 96 | 9.7 | 27.4 | 0.00 | 0.00 | 0.00 | 58 | 1013.2 |
| 20260506180023 | 33 | 123 | 9.7 | 25.7 | 0.00 | 0.00 | 0.00 | 58 | 1013.3 |
| 20260506174520 | 33 | 78 | 11.3 | 22.5 | 0.00 | 0.00 | 0.00 | 56 | 1013.5 |
| 20260506173021 | 33 | 148 | 12.9 | 27.4 | 0.00 | 0.00 | 0.00 | 60 | 1013.9 |
| 20260506171522 | 32 | 128 | 12.9 | 29.0 | 0.00 | 0.00 | 0.00 | 58 | 1014.2 |
| 20260506170016 | 32 | 174 | 11.3 | 27.4 | 0.00 | 0.00 | 0.00 | 61 | 1014.2 |
| 20260506164514 | 32 | 126 | 12.9 | 22.5 | 0.00 | 0.00 | 0.00 | 60 | 1014.4 |
| 20260506163007 | 32 | 117 | 12.9 | 27.4 | 0.00 | 0.00 | 0.00 | 62 | 1014.6 |
| 20260506161506 | 32 | 63 | 12.9 | 29.0 | 0.00 | 0.00 | 0.00 | 61 | 1014.8 |
| 20260506160004 | 32 | 92 | 8.0 | 27.4 | 0.00 | 0.00 | 0.00 | 63 | 1015.0 |
| 20260506154505 | 32 | 161 | 11.3 | 25.7 | 0.00 | 0.00 | 0.00 | 61 | 1015.1 |
| 20260506153058 | 31 | 144 | 11.3 | 29.0 | 0.00 | 0.00 | 0.00 | 62 | 1015.1 |
| 20260506151554 | 31 | 122 | 11.3 | 40.2 | 0.00 | 0.00 | 0.00 | 61 | 1015.2 |
| 20260506150051 | 31 | 68 | 14.5 | 27.4 | 0.00 | 0.00 | 0.00 | 64 | 1015.3 |
| 20260506144550 | 31 | 132 | 9.7 | 30.6 | 0.00 | 0.00 | 0.00 | 64 | 1015.5 |
| 20260506143042 | 30 | 144 | 14.5 | 32.2 | 0.00 | 0.00 | 0.00 | 64 | 1015.6 |
| 20260506141538 | 30 | 103 | 16.1 | 32.2 | 0.00 | 0.00 | 0.00 | 66 | 1015.8 |
| 20260506140036 | 29 | 169 | 12.9 | 30.6 | 0.00 | 0.00 | 0.00 | 70 | 1015.8 |
| 20260506134529 | 28 | 149 | 14.5 | 33.8 | 0.00 | 0.00 | 0.00 | 71 | 1015.9 |
| 20260506133026 | 28 | 110 | 12.9 | 29.0 | 0.00 | 0.00 | 0.00 | 74 | 1016.1 |
| 20260506131539 | 27 | 150 | 11.3 | 27.4 | 0.00 | 0.00 | 0.00 | 75 | 1016.0 |
| 20260506130027 | 27 | 113 | 9.7 | 22.5 | 0.00 | 0.00 | 0.00 | 77 | 1016.1 |
| 20260506124514 | 26 | 109 | 11.3 | 22.5 | 0.00 | 0.00 | 0.00 | 78 | 1016.1 |
| 20260506123008 | 26 | 144 | 12.9 | 25.7 | 0.00 | 0.00 | 0.00 | 79 | 1016.1 |
| 20260506121505 | 25 | 141 | 8.0 | 22.5 | 0.00 | 0.00 | 0.00 | 82 | 1016.4 |
| 20260506120100 | 25 | 189 | 3.2 | 11.3 | 0.00 | 0.00 | 0.00 | 87 | 1016.4 |
| 20260506114558 | 23 | 78 | 1.6 | 4.8 | 0.00 | 0.00 | 0.00 | 93 | 1016.4 |